STARLINK-35441

Last updated on Mon Oct 20 2025 00:02:07 GMT+0000 (Coordinated Universal Time)

1 65869U 25223R 25292.25002315 -.01904192 00000+0 -21759-1 0 9998 2 65869 53.1598 234.9541 0001189 89.0486 31.2160 15.64687307 3732
UTC large
Height (km)
Speed (km/s)
/
Latitude / Longitude
Inclination (degrees)
Orbital Period (minutes)
Azimuth
Elevation
Range (km)
Doppler Factor

Next 0 passes for location: London (51.5072 / 0.1276)

Sorry there are no passes over London.